Theta_e
314 312 313 313 312 309 313 312 310 310 309 312 312 316 318 315 312 312 310 309 308 307 310 314 323 329 332 333 334 335 335 335 336 335 335 334 334 334 333 333 332 332 332 332
313 312 308 309 314 315 313 312 309 308 310 311 309 311 312 313 313 312 312 309 308 308 307 309 312 315 319 326 331 333 334 335 335 335 335 334 333 334 334 334 333 333 332 333
313 311 310 310 312 316 314 311 309 308 308 307 308 306 307 307 309 310 308 307 307 307 308 307 308 311 313 315 324 330 333 334 335 335 335 334 333 333 332 332 331 330 332 334
315 312 312 310 310 313 315 311 311 311 310 310 305 306 303 304 306 306 308 307 307 306 306 307 307 309 311 316 318 323 328 332 333 334 334 334 333 332 333 330 328 326 326 331
312 313 313 311 309 311 311 310 312 311 310 310 308 306 303 303 303 301 301 304 306 307 307 305 305 309 313 312 314 318 320 321 322 326 331 333 333 333 331 331 330 330 329 331
311 310 311 311 308 308 307 309 309 308 309 312 308 308 306 304 303 303 302 302 302 302 301 301 306 308 310 311 313 314 316 316 316 316 315 317 321 322 323 324 327 328 329 331
313 312 310 308 311 309 308 308 306 307 304 309 306 307 306 304 302 302 303 302 301 300 300 300 304 309 313 315 316 315 315 315 316 316 316 317 317 317 317 319 322 326 327 328
312 314 312 310 310 310 310 309 308 309 308 306 306 308 306 305 305 304 302 301 301 302 301 302 305 309 312 314 315 315 315 314 316 317 317 318 318 317 318 320 323 324 323 323
310 311 308 309 309 309 310 311 307 310 304 307 306 305 303 304 304 304 304 304 303 302 304 306 307 309 311 310 311 313 314 314 314 316 317 317 316 315 316 319 319 317 316 316
310 310 308 309 310 310 309 308 311 308 303 304 308 307 305 305 306 305 304 304 302 304 305 306 304 305 306 307 307 307 308 309 308 308 309 309 309 310 310 311 311 309 308 308
309 309 310 310 311 312 311 311 309 308 306 307 306 304 300 304 304 305 304 304 303 304 304 304 301 302 303 302 303 303 304 303 302 303 305 307 307 306 307 307 306 305 303 302
308 309 311 310 309 309 311 312 310 312 310 309 307 305 302 303 304 303 303 303 304 305 303 300 298 298 298 299 299 300 300 301 301 301 302 303 303 302 302 301 299 299 298 296
302 310 311 309 308 310 313 311 311 310 307 309 308 307 303 302 306 304 305 305 301 305 301 299 296 295 295 296 297 298 298 298 298 298 298 297 297 297 297 296 294 293 293 292
302 304 305 307 306 305 313 312 312 312 314 312 309 308 305 304 304 304 305 306 304 303 301 298 296 294 294 295 295 295 296 296 296 295 294 294 293 293 293 292 291 290 290 289
303 302 303 304 304 304 305 307 309 313 313 313 312 310 308 304 303 302 301 303 304 303 300 298 297 294 294 293 293 294 294 293 293 292 291 291 290 289 289 288 287 287 287 288
303 300 303 302 304 305 303 302 302 303 307 312 311 310 308 306 303 304 303 300 302 302 301 299 297 294 293 292 292 292 292 292 291 290 289 288 287 287 286 286 286 285 285 285
301 302 299 299 304 303 296 300 302 302 306 308 311 310 308 308 307 305 303 301 301 302 301 300 297 296 295 293 293 291 291 291 289 288 287 286 286 285 285 284 284 283 282 282
300 300 298 289 296 301 297 297 301 302 303 303 306 308 309 309 308 307 304 303 303 302 302 302 301 299 297 296 293 291 290 289 288 286 286 285 284 284 283 282 282 281 280 280
299 299 293 294 292 296 297 297 300 303 303 303 305 305 306 305 306 307 305 304 306 306 305 304 305 303 301 297 293 290 287 287 285 284 284 284 283 282 281 281 280 280 279 278
299 300 300 288 294 293 294 295 296 301 300 298 301 301 301 302 304 304 303 301 302 303 304 302 303 302 300 295 291 287 285 284 283 284 283 283 282 282 281 280 279 278 278 278
298 299 300 299 299 293 295 297 299 299 300 300 299 300 300 300 300 299 293 294 295 294 294 296 297 298 297 292 288 285 284 283 283 283 283 282 281 281 280 279 278 278 278 277
294 292 294 294 300 300 296 298 301 300 300 300 297 295 295 293 291 290 290 289 287 286 286 288 288 289 288 288 286 284 283 283 282 282 281 280 280 279 278 278 277 277 277 276
292 296 293 297 295 296 297 298 298 297 297 296 294 292 290 289 289 288 287 285 284 282 282 283 283 283 283 284 285 283 282 280 280 280 279 279 278 278 277 277 276 276 276 275
291 292 294 294 295 295 294 293 293 292 292 291 289 287 286 286 286 287 285 284 282 281 280 280 281 280 280 282 282 281 278 279 279 277 277 276 276 276 275 275 275 275 274 274
294 292 292 292 294 294 294 293 293 292 289 287 286 285 285 284 285 284 285 282 280 279 279 279 279 278 277 278 279 278 278 278 276 275 275 274 275 275 274 274 274 274 274 274
292 295 295 297 296 294 293 294 289 288 289 288 285 284 284 283 283 282 282 280 279 278 277 277 277 276 275 276 276 276 277 277 276 274 274 274 273 273 273 273 272 272 274 273
Wind_Speed
1 3 9 8 5 1 6 3 5 2 2 3 7 7 15 8 5 8 8 8 8 9 17 22 28 34 36 33 35 37 35 34 33 31 29 28 30 30 29 29 30 29 27 27
2 8 3 1 2 1 3 4 4 2 1 4 6 8 12 9 7 9 13 9 10 6 7 16 27 29 31 34 38 37 38 36 35 34 34 28 28 28 29 27 27 26 27 29
4 2 7 6 4 7 4 5 4 2 3 0 4 8 7 8 8 9 8 9 7 11 11 10 15 20 21 29 36 39 38 38 37 36 33 28 20 19 15 22 25 25 25 25
6 5 3 3 6 7 11 6 3 1 3 4 2 9 7 7 9 8 13 11 13 13 13 11 12 19 21 20 25 29 33 36 35 34 34 33 29 24 29 27 26 22 21 23
6 5 5 7 6 7 5 6 7 5 3 3 2 3 6 2 6 7 12 16 17 20 16 13 13 24 25 21 17 19 23 25 26 30 32 32 32 32 29 27 27 26 24 22
5 2 5 6 4 12 8 5 6 5 3 6 8 6 5 6 6 6 7 12 15 12 9 8 16 18 16 15 15 17 19 20 20 20 21 23 26 27 24 23 23 23 23 21
5 6 2 3 5 2 4 8 2 2 0 8 2 7 19 4 7 8 10 10 8 7 8 9 10 13 17 16 16 16 16 16 15 15 16 17 17 18 17 19 22 22 21 20
7 4 11 6 6 6 12 11 6 7 5 3 2 9 6 11 11 8 8 9 8 6 6 8 7 13 20 20 18 17 15 13 12 11 11 10 11 14 16 17 18 20 19 17
5 5 1 5 4 9 5 12 5 4 2 2 5 7 8 9 10 8 11 10 13 4 6 7 7 16 20 18 16 15 14 11 9 8 8 8 7 9 10 12 14 17 16 16
1 2 5 5 2 6 6 7 6 1 2 4 5 5 6 5 8 9 8 8 8 4 7 6 5 12 15 16 15 13 12 13 12 11 10 10 10 10 11 12 15 16 15 14
5 3 2 6 9 15 4 5 4 5 5 5 2 6 7 8 7 6 7 5 6 6 4 4 5 12 14 14 14 15 15 14 13 11 11 11 11 12 13 15 15 14 14 14
2 4 9 9 2 2 15 18 18 7 11 7 2 6 4 5 2 2 6 7 4 3 5 6 7 11 13 14 15 14 14 14 13 12 12 12 13 13 14 13 13 14 14 14
5 5 7 1 3 2 5 14 14 17 3 13 6 9 3 7 2 3 6 7 4 1 3 6 6 8 12 14 14 14 14 13 13 14 14 14 14 14 14 14 13 13 14 15
6 3 5 4 2 4 4 7 19 13 12 18 15 20 7 4 5 4 5 4 4 1 2 2 3 5 12 15 16 17 17 16 16 16 16 16 16 16 15 15 15 15 16 17
5 4 4 2 7 2 4 8 6 16 18 10 20 22 15 7 8 5 7 4 1 4 6 8 7 7 15 20 21 20 20 19 19 20 19 18 17 17 17 17 17 17 18 18
1 2 4 4 3 1 6 13 12 9 9 17 23 26 15 4 5 6 9 7 8 9 9 9 9 9 16 23 27 28 26 24 23 23 22 21 20 19 19 19 19 19 20 19
1 1 0 4 3 3 6 9 12 5 7 9 18 26 16 15 10 9 9 8 10 10 10 9 12 15 23 28 33 34 34 29 27 26 25 24 24 23 22 21 20 20 19 19
5 5 2 3 2 4 8 4 7 11 9 11 16 20 21 19 16 16 11 12 14 14 14 15 13 18 27 30 30 31 33 33 32 30 29 28 28 27 24 23 21 20 19 19
10 2 2 2 3 5 10 10 7 7 6 7 12 18 17 16 12 17 14 15 18 19 16 21 26 30 29 32 34 35 34 35 34 32 33 32 31 29 28 25 24 21 20 19
7 10 5 2 3 6 9 8 6 3 7 6 2 8 11 9 8 13 13 8 14 19 25 22 29 27 26 30 32 31 31 32 32 34 34 34 32 31 29 28 26 24 21 20
2 1 11 9 7 7 13 5 4 3 5 4 3 8 10 4 5 10 5 6 8 9 14 19 18 22 28 28 31 28 29 32 31 33 34 33 32 31 30 28 26 24 23 21
6 5 4 3 4 7 6 1 5 4 2 3 4 7 9 8 8 8 8 7 9 8 15 16 13 11 15 24 29 24 26 28 33 35 35 34 32 29 28 27 26 24 23 22
3 7 4 8 6 5 2 5 3 3 7 6 4 6 7 11 9 7 8 6 7 9 9 9 8 6 10 18 23 21 23 32 34 35 34 34 31 29 28 27 27 25 23 23
5 5 4 4 9 16 9 6 5 7 7 4 6 7 6 11 9 12 8 7 5 7 8 6 4 5 6 15 18 20 25 31 33 31 31 32 31 27 27 25 25 25 23 20
5 4 6 6 11 6 11 8 6 3 4 6 7 7 8 8 10 8 10 7 6 8 7 6 5 6 7 12 17 22 26 30 29 28 26 25 26 27 26 23 24 22 21 21
5 8 4 10 11 5 8 2 1 5 6 6 6 8 6 7 9 7 9 7 7 8 8 8 8 10 11 14 17 19 25 32 32 27 27 26 25 22 21 20 17 11 13 12
Wind_Direction
214 157 209 197 228 173 141 179 191 222 270 178 243 237 247 223 212 230 233 231 250 248 254 252 242 239 236 235 232 231 229 227 223 220 221 228 231 234 238 240 243 244 247 250
117 237 177 184 230 315 139 167 199 287 225 175 291 264 256 230 222 212 229 237 228 231 259 251 242 241 234 233 233 231 228 226 222 222 222 220 228 235 239 244 247 250 249 247
192 171 179 171 177 206 204 186 168 144 352 170 329 275 232 252 226 231 236 231 233 224 236 241 249 240 235 230 229 226 224 224 223 224 223 222 228 233 236 241 247 249 248 249
244 249 120 186 220 184 230 164 165 250 71 242 33 277 264 245 240 224 236 236 239 238 237 239 230 236 237 238 234 227 225 223 223 224 224 223 219 219 236 246 252 255 257 252
215 181 170 202 216 170 228 154 191 164 147 17 208 307 263 276 260 247 235 241 241 242 239 233 229 235 243 236 224 216 217 219 222 225 226 230 232 240 246 250 252 251 250 248
219 168 181 199 162 181 146 89 58 55 96 257 211 183 214 200 204 248 244 239 242 236 235 241 237 232 221 216 207 202 200 200 203 207 212 222 231 237 240 242 242 243 240 237
180 236 264 157 127 156 137 135 33 11 2 235 289 189 247 225 238 224 239 267 254 238 221 216 193 177 172 173 174 173 178 178 189 199 207 218 229 237 244 244 239 228 219 214
194 228 187 182 192 169 202 182 159 182 203 234 166 232 248 230 264 252 254 260 286 246 231 220 207 178 168 164 165 168 174 177 187 201 218 231 244 244 232 227 223 210 200 194
178 245 271 160 158 158 188 214 162 107 46 65 216 289 291 257 266 252 251 256 254 261 199 191 169 166 166 167 170 173 172 173 180 189 196 198 200 198 194 189 184 178 174 171
263 267 211 201 128 249 176 143 200 117 143 257 257 270 242 320 272 270 274 259 263 210 189 176 158 160 164 165 164 166 171 172 171 172 171 167 164 163 164 166 166 167 169 171
167 205 310 120 203 202 172 194 191 160 163 200 266 260 220 248 257 263 273 297 270 228 235 152 142 165 162 160 163 164 167 165 160 163 164 165 164 167 169 169 168 172 169 168
286 227 232 222 156 213 228 212 203 200 212 237 280 260 276 192 47 293 313 291 256 202 146 135 148 164 167 169 170 170 169 170 171 171 171 172 173 173 173 173 171 173 172 169
11 243 208 225 339 125 243 229 223 224 43 224 208 252 232 294 7 340 340 348 318 69 151 151 159 185 184 182 180 182 184 182 179 178 179 175 174 174 174 174 173 170 166 162
140 314 23 280 353 338 203 235 225 220 223 234 229 249 238 321 315 357 331 7 22 344 176 204 210 203 207 206 201 198 194 195 191 187 186 183 180 180 179 174 171 167 162 157
183 224 230 234 273 269 305 286 309 246 228 217 236 246 248 237 246 250 267 286 204 234 216 219 220 213 212 214 213 210 207 199 196 192 189 185 181 178 175 170 165 160 158 156
223 274 174 222 193 193 316 290 255 249 282 254 258 262 257 245 260 245 233 232 227 235 230 225 221 208 210 212 212 212 209 204 200 197 190 184 180 177 174 170 165 163 159 156
212 244 131 242 175 145 311 233 236 229 216 250 252 258 277 275 252 250 249 227 234 244 249 232 216 216 219 213 212 206 208 203 199 198 192 186 182 179 176 173 169 163 158 156
221 176 196 247 30 214 237 293 248 217 229 232 252 259 260 264 260 251 236 223 228 236 240 242 238 227 227 225 215 209 207 203 201 199 195 190 186 182 178 174 171 164 160 158
225 136 302 188 199 315 317 273 208 183 269 233 243 263 271 275 274 266 243 240 253 257 253 253 251 239 235 225 215 202 197 196 193 193 195 194 190 184 179 176 172 169 165 160
213 213 200 109 181 218 233 261 206 119 286 339 123 281 285 288 278 272 287 241 246 249 253 246 245 244 230 219 205 187 185 186 189 191 191 193 191 188 183 180 174 171 170 164
117 211 225 229 233 278 258 199 170 118 254 294 282 279 287 276 243 297 340 305 314 301 298 291 272 239 229 211 195 185 183 193 190 188 192 190 189 189 186 180 177 174 172 172
179 172 215 198 221 256 196 184 173 191 278 247 250 272 282 271 285 289 298 300 309 309 319 306 278 246 220 204 187 184 189 185 184 187 186 185 186 186 183 180 176 177 175 172
267 194 211 189 219 251 202 237 233 157 258 265 237 262 277 285 294 295 288 284 291 307 313 302 262 198 193 196 193 177 175 177 178 178 176 180 180 183 184 184 178 175 180 174
259 192 213 74 249 255 258 260 230 205 224 256 256 265 264 279 293 290 285 282 266 286 296 291 222 213 169 186 187 185 174 177 177 170 170 174 174 175 181 184 183 178 175 173
228 156 212 257 266 310 275 258 263 230 233 258 270 253 259 264 276 270 287 262 241 242 255 240 211 180 185 174 178 180 180 181 165 164 163 165 173 175 175 182 183 184 189 189
180 235 213 252 254 230 278 263 262 254 256 279 275 292 274 263 284 289 282 280 244 217 205 191 190 191 186 182 182 185 187 184 173 162 166 170 172 170 170 167 157 167 183 173